Погода в Балаганске

Россия / Иркутская область     54°00′22″N   103°03′27″E
темп.,
°C
ветер,
м/с
пор.,
м/с
влажн.,
%
обл.,
%
осадки,
мм/ч
давл.,
гПа
погр.,
м
17 сентября, пт
пт1723:00+7св119159 0.0 101634
02:00+7св2292100 0.1 101665
05:00+7св2391100 0.1 1016102
08:00+8св238984 0.2 1017145
11:00+9вюв2481100 0.0 1016345
14:00+12вюв2370100 0.0 1014581
17:00+14юв236592 0.0 1013493
20:00+10всв228056 0.0 101417
18 сентября, сб
сб1823:00+8в22835 0.0 101416
02:00+7вюв228528 0.0 101432
05:00+6вюв23897 0.0 101341
08:00+7вюв27835 0.0 1013252
11:00+12ююв69585 0.0 1012550
14:00+17ююв58456 0.0 1009732
17:00+18ююв47445 0.0 1008717
20:00+13юв22659 0.0 100911
19 сентября, вс
вс1923:00+11юв227388 0.0 101013
02:00+9всв11825 0.0 101110
05:00+8с1184100 0.0 101211
08:00+10сз118098 0.0 101339
11:00+14ю226031 0.0 1012473
14:00+17юв33515 0.0 1011712
17:00+17ююв23515 0.0 1009447
20:00+12ю11685 0.0 100910
20 сентября, пн
пн2023:00+11вюв117461 0.0 100810
02:00+10юв228574 0.0 100619
05:00+9юв359195 0.0 1004109
08:00+10юв3118865 0.0 1003311
11:00+15ююз246397 0.0 1002626
14:00+18ююв1252100 0.0 1000865
17:00+18ссз125099 0.0 999896
20:00+10сз111682100 0.3 10061025
21 сентября, вт
вт2123:00+9сз4986100 3.6 10101017
02:00+7сз5108490 3.8 1012675
05:00+5сз488520 0.0 1014297
08:00+5с248892 0.0 1014243
11:00+8с3469100 0.0 1014821
14:00+8с2371100 1.1 1014823
17:00+8с3466100 0.4 1014982
20:00+6ссз127188 0.4 101670